Regional Weather Roundup
Issued by NWS

Home | Current Version | Previous Version | Graphics & Text | Print | Product List | Glossary On
Versions: 1 2 3 4 5 6 7 8 9 10 11 12 13 14 15 16 17 18 19 20 21 22 23 24 25 26 27 28 29 30 31 32 33 34 35 36 37 38 39 40 41 42 43 44 45 46 47 48 49 50
000
ASUS45 KABQ 220410
RWRNM
NEW MEXICO REGIONAL WEATHER ROUNDUP
NATIONAL WEATHER SERVICE ALBUQUERQUE NM
1000 PM MDT WED JUN 21 2017

NOTE: "FAIR" MEANS FEW OR NO CLOUDS BELOW 12,000 FEET AGL WITH NO
       SIGNIFICANT WEATHER OR OBSTRUCTIONS TO VISION.

      THIS PRODUCT IS RELEASED AS TWO VERSIONS.  ONE VERSION NEAR
      THE TOP OF THE HOUR CONTAINING PRELIMINARY DATA FROM ALBUQUERQUE
      AND OTHER STATIONS.  A FINAL VERSION WITH ADDITIONAL DATA IS
      ISSUED ABOUT 10 MINUTES AFTER THE HOUR.

NMZ501-503-504-510>518-220500-
NORTHWEST PLATEAU/NORTHCENTRAL MOUNTAINS

CITY           SKY/WX    TMP DP  RH WIND       PRES   REMARKS
FARMINGTON     FAIR      80  31  16 NE9       29.96R
LOS ALAMOS     FAIR      79  31  17 W6        30.15R
SANTA FE       FAIR      76  32  20 S6        30.06R
TAOS           FAIR      64  30  27 E12       30.15R
ANGEL FIRE     FAIR      56  38  51 CALM      30.28R

$$
NMZ402-403-502-505>509-220500-
WESTCENTRAL MOUNTAINS/SOUTHWEST MOUNTAINS

CITY           SKY/WX    TMP DP  RH WIND       PRES   REMARKS
GALLUP         FAIR      77  30  17 SE3       30.08R
GRANTS         FAIR      73  24  16 NE3       30.10R
SILVER CITY    FAIR      77  51  41 S3        30.05F

$$
NMZ407-409-411-412-220500-
SOUTHERN DESERTS

CITY           SKY/WX    TMP DP  RH WIND       PRES   REMARKS
DEMING         FAIR      83  49  30 NW17G24   29.93R
LAS CRUCES     FAIR      86  43  22 CALM      29.95R
HOLLOMAN AFB   FAIR      88  44  21 SE8       29.90F
ALAMOGORDO     FAIR      86  41  20 SW8       29.89F
T OR C         FAIR      83  40  21 SW6       29.92S

$$
NMZ519>523-220500-
CENTRAL VALLEYS/CENTRAL HIGHLANDS

CITY           SKY/WX    TMP DP  RH WIND       PRES   REMARKS
ALBUQUERQUE    FAIR      91  31  11 N12       29.95R
DOUBLE EAGLE   PTCLDY    81  36  19 N8        30.00R
MORIARTY ARPT  FAIR      82  46  28 E16       30.06R
CLINES CORNERS FAIR      73  46  38 E12       30.15R
BELEN          FAIR      86  33  14 W13       29.93R
SOCORRO        FAIR      91  32  12 W18       29.89R

$$
NMZ524>526-539-540-220500-
SOUTHCENTRAL MOUNTAINS

CITY           SKY/WX    TMP DP  RH WIND       PRES   REMARKS
RUIDOSO        FAIR      72  45  37 SW14      30.15R

$$
NMZ527>531-220500-
NORTHEAST HIGHLANDS/NORTHEAST PLAINS

CITY           SKY/WX    TMP DP  RH WIND       PRES   REMARKS
LAS VEGAS      FAIR      65  45  48 NE7       30.17R
RATON          FAIR      67  42  40 N7        30.08R
CLAYTON        FAIR      71  52  50 SE14      29.99R

$$
NMZ532>537-220500-
EASTCENTRAL PLAINS

CITY           SKY/WX    TMP DP  RH WIND       PRES   REMARKS
TUCUMCARI      FAIR      75  58  55 SE10      29.92R
CANNON AFB     CLOUDY    73  60  63 SE24G36   29.96R
CLOVIS AIRPORT NOT AVBL

$$
NMZ028-029-538-220500-
SOUTHEAST PLAINS

CITY           SKY/WX    TMP DP  RH WIND       PRES   REMARKS
ROSWELL        FAIR      86  50  28 S17G25    29.88R
ARTESIA        FAIR      88  52  29 E12G26    29.87R
CARLSBAD       FAIR      88  55  32 NE16      29.89R
HOBBS          MOCLDY    84  50  30 NW23G33   29.97R


$$




USA.gov is the U.S. government's official web portal to all federal, state and local government web resources and services.